STARLINK-32854, 62816

Orbit data source: Space-Track

STARLINK-32854, 62816 is a payload satellite owned by SpaceX/Seattle (US) in LEO that was launched on Fri, 24 Jan 2025 UTC via an FALCON 9 launch vehicle from the Air Force Western Test Range (AFWTR). Payload-class satellites include a variety of spacecraft equipped with specific instruments for various scientific and technological missions. These include communications satellites like Starlink; space stations such as the ISS; scientific satellites like the Hubble; Earth observation satellites from companies like Planet Labs, Umbra, and HawkEye 360; GPS; miniature CubeSats for education and research; and military/defense satellites.

Loading next visibility...
Identifier
62816, 2025-018L
Orbit
LEO
Last TLE update
8 hours ago
Origin
Manufacturer
SpaceX/Seattle
Mission
Operational Commercial Communications
Bus & Motor
STARLINK V2M, Unknown motor
Mass
730 kg wet, ~700 kg dry
Launch date (UTC)
2025-01-24 (5 months ago)
Launch vehicle
FALCON 9
Launch site
Air Force Western Test Range (AFWTR)
Object type
Payload
Rocket body
Debris
Shape & HBR
Box + 2 Pan, 29 m
Radar Cross Section
33.884 m², Large (>1 m²)

Expand to show TLE details & history

TLE from 8 hours ago
0 STARLINK-32854
1 62816U 25018L   25182.00361064  .00027533  00000-0  93843-3 0  9997
2 62816  53.1601  38.6960 0001198  86.4054 273.7084 15.30194822 25440
Epoch: 2025-07-01T00:05Z
TLE epoch observation values (Epoch: 2025-07-01T00:05:11.959Z)
Latitude
0.00001°
Longitude
118.09088°
Altitude
476.077 km
Speed
7.629 km/s
True Right ascension
02h 34m 47s
True Declination
0° 00' 00"
Sunlit
Object was in daylight at epoch
Visualization orbit readout
Latitude
25.18742°
Longitude
-84.0622°
Altitude
475.775 km
Speed
7.632 km/s
Apparent Right ascension
10h 59m 17s
Apparent Declination
-7° 27' 55"
Sunlit
Object is in daylight
Visualization observer readout
Local Sidereal Time
20:12:13
Azimuth
299.582° NW
Elevation
-40.587°
Doppler factor
1
Orbital elements
Apogee altitude
476.308 km
Perigee altitude
474.666 km
Semi-major axis
6,853.624 km
Eccentricity
0.00012
Inclination
53.1601°
RAAN
38.696°
Arg. of periapsis
86.4054°
True anomaly
Unknown
Mean anomaly
273.7084°
Eccentric anomaly
Unknown
Mean motion
3.82528 °/min
Orbital period
94.11 mins
BSTAR
0.00093843
Loading maneuver chart data...
Loading SW <> Apogee altitude chart data...
Loading historical data...
Loading historical data...
Loading historical data...
Loading historical data...
Loading historical data...
Loading historical data...
Loading historical data...

STARLINK-32854 Visibility forecast

Observer location: undefined°, undefined°

Span
Click to sort rows by Start time (UTC) header in descending order
Start Az.
Max El. time (UTC)
Max El. Az.
Max El.
End time (UTC)
End Az.
5 mins2025-07-01 17:32:05.190Z246.089° WSW2025-07-01 17:34:05.190Z297.721° NW40.805°2025-07-01 17:37:05.190Z41.438° NE
4 mins2025-07-01 22:29:05.190Z343.371° N2025-07-01 22:31:05.190Z22.757° NE18.978°2025-07-01 22:33:05.190Z63.082° ENE
5 mins2025-07-02 00:07:05.190Z304.482° NW2025-07-02 00:09:05.190Z267.873° W42.989°2025-07-02 00:12:05.190Z138.436° SSE
|